Theta_e
333 332 332 326 323 320 320 315 298 303 293 290 289 289 291 298 299 295 296 298 297 301 303 301 300 302 299 299 300 300 301 299 301 292 296 309 324 324 323 324 322 322 323 331 339 339 340 344 350 352 353 353 355 354 354 355 353 355 354 354 353 352 352 351 350 349 349 349 349 349 349 349 349 348 348 347 347 347 347 348 349 348 346 346 347 348 347 346 346 346 346 346 345 348 354 354 353
329 322 321 322 319 319 310 311 297 295 292 288 290 290 294 297 295 295 294 297 299 301 302 300 300 302 301 302 299 300 301 304 303 309 314 319 321 317 322 322 322 320 319 328 337 339 338 339 347 351 352 353 353 353 353 353 352 354 354 353 353 352 352 352 352 351 350 350 349 349 348 349 349 348 348 347 347 347 347 347 349 349 347 347 348 348 348 347 346 346 347 346 345 348 354 354 353
327 322 322 322 319 316 313 306 295 291 288 285 289 292 296 294 293 296 297 299 301 302 300 300 302 302 301 299 297 296 296 308 309 310 315 315 311 314 319 320 322 319 320 323 334 336 340 339 344 350 351 351 352 353 353 353 353 352 353 353 351 352 349 349 347 347 347 348 347 349 349 348 348 348 348 347 347 347 347 347 348 348 346 346 347 348 347 346 345 345 345 346 345 348 354 353 352
327 325 322 317 311 312 304 301 294 288 287 286 287 293 294 294 295 297 299 300 300 299 300 300 299 304 300 297 299 299 301 303 308 309 312 309 311 317 318 319 320 323 325 324 333 341 340 341 343 350 351 351 352 353 353 353 353 353 353 352 352 352 350 348 350 349 348 349 349 347 348 345 347 347 347 347 346 346 346 347 346 347 347 347 347 347 347 346 344 345 345 345 345 347 353 353 352
321 325 323 316 311 303 299 299 294 286 287 288 286 293 294 295 296 296 300 299 298 299 300 301 297 300 303 303 304 297 299 305 306 310 312 314 314 315 318 318 321 325 325 324 332 339 340 341 343 347 350 351 352 352 352 352 351 352 352 353 352 352 352 351 350 349 348 349 350 350 350 349 348 348 347 346 346 346 346 346 346 346 346 347 347 347 347 346 345 345 345 345 345 347 352 352 351
322 320 321 315 308 308 301 291 290 288 291 292 289 292 294 296 297 297 299 300 300 299 300 299 298 299 301 303 305 300 306 299 307 310 311 311 314 316 318 318 322 325 326 326 327 334 336 341 344 347 349 349 350 350 350 350 351 351 351 351 352 352 352 351 350 350 349 349 349 351 350 349 349 347 347 348 349 347 347 346 346 347 348 346 346 347 349 348 348 347 346 345 345 346 351 352 351
313 309 313 308 308 306 296 290 289 288 293 294 292 293 295 297 298 297 297 299 301 300 300 300 299 297 297 302 305 307 310 311 309 309 313 314 315 316 317 318 320 323 325 327 327 328 333 337 342 344 346 346 346 347 348 348 349 350 350 351 351 352 351 350 350 349 346 345 347 345 346 348 347 347 348 349 349 349 348 346 346 346 348 347 347 348 348 349 349 349 348 346 347 347 350 351 351
316 305 307 298 297 296 293 292 291 289 294 296 296 295 296 297 297 297 297 296 297 296 300 299 298 299 297 304 297 305 307 309 311 313 314 314 316 318 318 319 320 321 323 325 327 328 333 335 339 342 342 343 343 344 344 346 349 349 349 350 350 351 351 349 348 347 346 347 348 346 343 346 346 345 344 346 347 346 345 348 349 348 348 348 348 348 348 349 349 350 350 347 347 346 347 352 351
311 308 306 299 294 295 292 291 292 294 294 296 296 302 304 299 298 298 298 299 298 296 297 298 298 293 296 299 298 304 305 308 309 311 310 311 315 317 315 314 316 316 316 318 319 320 322 329 335 340 341 340 341 342 342 343 345 347 348 347 348 349 350 349 348 349 349 348 347 346 347 347 345 343 346 346 344 343 347 349 349 349 348 348 348 348 348 348 347 348 347 348 346 346 346 348 351
306 304 298 298 296 291 291 293 288 295 294 296 295 297 299 299 298 297 297 296 296 296 297 298 298 299 300 297 298 300 302 306 307 306 309 310 311 313 311 312 313 313 311 312 312 313 314 322 324 329 335 339 340 340 341 341 342 343 344 346 346 345 347 348 348 348 347 347 347 347 348 347 346 347 348 346 345 346 346 348 347 346 348 348 348 348 348 347 347 347 347 347 346 347 347 347 347
300 306 304 295 290 289 289 290 291 295 293 296 296 299 299 298 298 297 296 295 297 296 298 298 297 298 299 297 297 306 305 304 304 303 307 309 309 309 309 310 311 312 310 310 310 311 311 311 319 322 324 327 336 338 339 340 341 342 342 343 344 345 345 346 346 347 345 346 347 347 347 345 345 346 346 346 346 346 345 343 342 343 348 348 348 348 348 347 347 346 346 347 347 348 347 347 344
296 296 299 292 291 289 288 288 292 293 294 294 295 298 298 298 297 295 295 295 296 296 296 298 296 299 296 295 296 300 302 303 302 304 306 308 307 308 308 308 310 311 311 308 308 309 310 310 310 317 319 322 324 329 334 337 338 340 340 341 342 343 343 344 344 345 345 344 346 346 345 346 346 346 345 346 346 346 346 344 343 342 344 348 348 348 348 348 347 346 347 347 347 347 348 347 344
299 298 292 291 289 291 289 289 291 293 292 293 295 299 298 299 297 296 295 295 295 295 296 298 299 298 294 295 298 300 300 301 303 304 305 306 306 306 306 306 308 308 309 308 305 306 308 308 309 311 314 317 317 321 324 328 332 337 338 339 340 341 342 342 342 342 344 342 342 344 346 345 344 344 344 344 345 345 347 343 343 345 346 349 348 348 348 347 347 346 346 346 346 346 347 346 344
302 303 296 293 292 293 289 291 290 289 291 295 296 299 300 296 299 296 295 295 295 295 298 300 300 299 295 295 295 295 298 301 302 304 304 305 305 304 305 304 305 305 305 306 303 304 305 306 308 308 310 310 310 314 319 323 327 330 333 336 335 337 338 339 340 341 342 342 342 341 339 338 339 340 342 343 343 342 341 341 343 345 347 348 348 348 347 347 346 346 345 345 345 346 346 346 345
301 301 295 295 292 288 292 291 291 288 291 295 299 298 298 300 298 297 296 294 295 299 301 302 302 297 291 292 292 295 298 300 301 302 302 303 303 302 303 302 302 303 302 303 303 302 303 304 305 306 309 309 309 311 314 317 322 324 327 330 332 334 336 336 337 338 338 338 338 336 334 332 331 332 335 336 339 337 335 335 337 342 347 347 347 347 347 346 345 344 344 344 344 344 345 346 345
304 300 298 294 291 290 292 291 292 290 292 295 298 296 296 298 299 297 299 298 297 300 300 296 300 295 296 294 296 298 298 300 300 300 299 299 300 300 299 299 300 300 301 301 301 302 302 302 303 305 307 309 308 310 312 314 317 320 323 325 327 329 331 332 333 334 332 329 329 329 328 328 328 330 327 329 330 334 334 332 334 342 345 345 346 346 345 345 344 343 343 344 344 343 344 344 342
304 299 294 292 291 290 292 292 289 289 294 296 298 296 294 296 299 298 299 301 296 296 297 298 297 299 296 296 298 298 298 301 301 298 298 297 296 296 297 298 298 298 301 301 301 302 302 302 302 303 303 308 307 309 311 313 314 318 318 319 321 323 326 328 329 327 324 324 325 325 324 328 331 332 333 332 326 329 327 327 330 337 341 341 342 343 344 343 343 343 343 343 343 342 339 338 336
303 297 291 289 291 290 293 293 294 294 292 295 296 296 294 294 296 298 299 297 296 296 295 296 297 296 297 298 298 298 298 297 297 297 296 295 295 294 295 295 296 296 297 299 300 301 301 301 302 302 301 305 304 307 310 312 312 314 314 315 317 319 320 321 325 328 325 329 326 328 331 330 331 333 333 329 332 331 329 325 326 331 337 339 338 340 341 341 341 342 342 342 341 340 335 338 335
299 294 291 288 290 293 296 295 294 293 294 296 296 295 294 295 295 297 294 293 294 293 293 294 293 294 295 295 295 296 296 295 295 295 295 294 294 293 294 294 294 295 296 297 298 300 300 300 301 301 300 303 302 303 306 307 307 309 312 312 315 317 317 318 321 324 328 330 331 332 330 332 332 332 332 331 331 327 330 326 326 328 332 335 335 336 338 339 340 341 342 341 340 336 336 336 335
301 293 290 289 294 295 296 296 296 296 296 295 295 296 294 296 296 298 293 291 293 291 290 291 291 290 292 293 294 294 295 295 295 294 294 294 294 293 293 293 293 294 295 296 297 300 299 299 300 301 300 302 301 302 303 303 304 307 307 308 311 313 315 316 317 319 322 326 329 331 332 333 332 332 328 324 322 329 331 324 324 326 327 330 329 331 332 335 338 338 337 337 335 332 335 335 335
300 293 291 293 295 294 296 296 296 296 296 296 295 295 294 296 297 296 293 292 290 291 293 292 290 291 292 293 294 293 293 293 293 294 293 294 294 294 292 293 292 293 294 295 297 298 298 298 299 300 299 300 301 301 301 300 302 305 303 304 307 308 311 313 314 317 319 321 323 326 329 330 331 331 330 331 331 330 330 330 329 327 328 330 326 330 329 329 330 329 330 330 332 332 333 334 334
297 294 295 296 294 294 298 296 296 296 294 294 293 293 295 297 296 294 293 290 288 290 292 293 292 292 292 292 293 293 292 292 292 292 292 293 293 293 292 292 293 293 294 293 295 295 297 298 298 299 298 298 300 300 300 300 301 301 300 301 304 304 307 308 311 314 316 318 320 321 323 326 328 329 329 329 329 330 329 327 328 328 328 328 328 329 327 326 326 327 327 328 331 332 332 333 333
292 292 296 296 296 295 297 297 297 294 295 293 293 296 295 294 293 294 293 291 292 294 294 293 293 293 293 293 292 291 291 291 291 292 292 292 292 293 293 291 291 291 291 292 293 294 297 297 297 298 297 298 299 299 299 298 299 299 299 300 301 302 304 305 307 310 312 316 318 319 320 321 323 325 326 327 327 328 327 328 327 327 328 328 328 328 327 326 326 326 327 328 330 331 332 331 331
295 290 294 297 296 296 296 296 294 293 294 295 295 297 294 294 292 294 292 292 294 294 294 293 293 293 293 291 291 291 291 291 291 292 292 292 292 293 294 292 292 291 291 292 292 293 295 295 297 297 297 297 298 299 298 298 298 298 298 299 299 302 303 302 304 305 308 313 315 317 318 320 322 323 324 325 326 327 326 327 327 327 328 328 328 327 327 326 324 325 327 328 329 330 330 330 330
296 294 296 296 296 296 296 294 294 296 295 293 293 294 293 294 293 292 291 292 293 293 293 292 292 291 291 291 290 291 290 290 290 291 293 291 292 294 293 293 292 291 291 292 292 292 293 295 296 296 296 296 297 298 296 297 297 297 297 297 298 302 300 301 302 303 305 310 313 315 317 318 320 321 322 323 324 325 326 326 327 327 328 328 328 326 327 326 325 325 327 327 328 328 328 328 328
299 297 296 297 296 297 296 295 296 295 295 293 292 292 293 295 295 291 291 292 293 293 292 291 291 290 289 290 290 290 289 290 290 290 291 291 293 291 291 291 291 291 291 292 291 292 292 294 294 295 295 296 296 296 295 295 296 296 296 297 297 299 299 300 300 301 305 307 308 310 313 316 318 319 319 321 322 323 325 325 325 325 327 328 327 327 326 326 325 324 325 326 327 327 326 326 326
298 296 295 295 295 295 297 295 295 294 293 293 293 292 292 295 294 287 291 293 293 292 291 290 290 289 289 290 290 290 289 289 289 291 290 291 290 289 290 290 289 290 291 291 291 292 293 293 293 294 295 296 295 294 294 295 296 295 296 296 296 297 298 299 298 301 305 304 303 304 309 313 315 317 318 320 321 322 323 324 324 325 324 326 327 327 326 326 325 323 324 326 326 326 325 324 324
297 295 293 294 294 295 294 295 294 294 294 292 293 291 293 295 293 290 291 293 293 290 289 289 289 288 289 289 288 290 289 289 288 289 289 288 289 289 288 289 289 290 290 290 291 292 292 292 293 294 294 295 295 294 294 294 295 295 295 296 296 297 298 297 298 300 302 301 302 303 306 308 309 310 312 314 317 319 320 322 323 323 323 324 326 325 324 325 324 323 324 325 326 325 324 323 324
295 294 290 291 293 293 294 293 294 294 293 293 293 290 290 292 290 292 292 293 292 290 289 288 288 288 288 288 288 287 287 288 288 288 290 289 288 289 289 289 289 289 290 290 290 291 291 292 293 294 294 294 293 293 293 294 294 294 294 295 295 297 296 296 297 298 299 299 300 302 303 303 303 303 307 313 315 317 318 319 321 322 323 323 324 325 325 324 323 322 322 323 323 323 322 322 322
296 293 290 291 289 288 293 294 294 293 294 294 292 284 282 289 291 292 293 292 291 289 288 288 287 287 287 287 287 287 287 287 287 288 290 289 289 289 288 289 290 289 290 289 290 290 292 293 294 294 294 293 294 293 294 294 294 294 294 294 295 295 296 296 297 297 297 298 299 301 300 300 300 303 308 310 311 313 316 318 319 320 322 323 323 324 324 323 322 322 322 321 318 321 321 321 321
289 292 291 285 286 284 291 294 292 292 295 295 293 283 284 288 290 292 292 292 290 288 287 287 287 287 286 286 286 286 288 288 289 289 291 291 289 288 288 288 289 289 289 290 290 290 290 291 293 293 293 292 292 292 293 293 293 293 293 294 294 295 295 295 296 296 296 297 298 298 298 299 300 304 305 307 309 310 312 314 317 319 321 322 322 323 323 322 322 321 321 320 319 320 321 320 321
290 288 283 287 285 284 290 294 292 292 294 294 292 284 284 287 290 291 292 291 289 287 287 287 286 286 286 285 285 285 287 289 290 290 291 289 290 288 287 287 288 289 289 289 289 289 289 290 292 290 291 291 291 292 292 292 292 293 293 295 294 294 294 295 295 296 296 297 297 297 297 298 300 301 302 306 304 305 308 311 314 317 319 321 322 322 322 321 321 322 321 322 318 318 319 319 320
288 287 283 284 285 285 290 292 292 292 293 293 291 284 286 287 290 290 290 289 288 287 286 286 286 286 285 285 285 285 286 287 287 288 290 290 289 287 287 288 288 289 288 288 287 288 289 289 290 290 290 291 291 291 292 292 292 292 292 292 293 293 293 294 295 296 296 296 296 296 297 298 299 300 302 302 301 302 306 309 312 314 315 317 319 321 320 320 320 320 320 320 320 318 318 318 318
284 286 285 286 286 285 283 287 291 292 292 288 289 286 286 286 290 290 289 289 287 286 286 286 285 285 285 284 284 284 285 286 286 286 290 288 288 288 288 290 288 288 288 287 287 288 288 288 289 290 291 291 291 291 291 291 292 292 292 292 293 292 292 293 294 294 295 295 296 296 296 297 298 299 300 300 299 301 304 306 310 312 314 315 316 318 320 321 321 320 319 319 319 319 318 318 317
283 284 283 285 283 284 284 285 286 292 290 289 287 286 287 287 289 289 289 288 287 286 286 285 285 284 284 284 284 284 284 284 286 287 288 287 288 288 287 287 287 287 287 286 287 288 288 288 290 290 290 290 291 291 291 291 291 291 291 291 291 291 291 292 292 292 293 294 294 295 296 297 297 298 298 298 298 300 301 304 306 310 312 313 313 314 318 320 319 320 320 319 318 319 318 318 318
286 285 283 283 283 284 285 287 289 292 288 287 287 286 286 287 287 288 287 287 286 285 285 284 284 284 284 284 284 284 284 285 287 289 288 287 287 288 286 286 286 286 286 286 287 287 287 288 288 289 289 290 290 290 290 290 290 290 289 290 290 290 290 291 291 291 292 292 294 295 296 296 297 297 297 297 298 299 300 301 304 307 310 311 311 310 313 319 319 318 319 319 316 316 317 318 318
287 286 286 284 283 285 287 288 289 289 288 286 287 286 285 285 288 288 287 286 285 285 284 284 283 283 284 283 284 283 284 285 288 289 287 286 287 286 286 285 285 285 285 285 286 286 287 288 288 288 289 290 290 289 289 289 288 288 288 288 288 289 289 290 290 290 291 292 293 294 295 296 296 296 297 297 297 298 299 300 302 305 308 309 309 308 310 314 319 318 317 317 316 315 314 316 317
287 286 284 284 284 284 288 288 291 289 287 282 283 284 285 286 287 288 286 286 284 284 284 283 283 283 284 283 283 283 284 286 286 286 286 285 284 286 285 284 286 284 285 286 286 286 287 287 287 288 289 289 289 289 289 289 289 288 287 287 288 289 288 288 288 289 290 291 292 293 295 295 296 296 296 296 297 297 297 298 300 302 305 307 306 306 307 305 313 319 318 316 317 315 314 316 316
287 284 283 282 284 285 288 289 288 289 288 283 283 283 285 286 288 287 286 286 286 285 285 284 283 283 283 283 283 283 284 284 283 284 285 283 284 284 283 284 284 284 284 285 285 286 287 287 287 288 289 289 289 289 289 288 288 288 288 288 288 288 289 289 288 289 289 290 291 292 294 295 295 295 295 296 297 297 297 298 299 301 303 304 304 304 304 302 304 313 317 315 313 315 315 316 315
284 283 282 282 284 284 281 285 287 287 286 283 284 285 286 287 287 286 286 286 284 285 284 284 284 283 283 283 283 282 282 282 283 283 283 282 282 282 282 283 283 284 284 284 286 286 287 287 287 288 288 289 289 289 290 289 288 288 288 288 287 286 285 287 287 287 288 289 289 291 291 293 294 294 295 296 297 297 297 297 299 300 301 304 304 303 302 301 301 303 312 316 315 311 312 312 315
284 285 283 283 284 284 284 283 286 286 287 287 285 284 283 285 283 283 283 284 284 284 284 283 283 284 284 284 283 282 282 282 282 283 282 281 281 282 282 283 283 283 284 284 286 286 287 286 287 288 288 288 288 289 288 288 287 287 286 285 285 284 284 284 284 285 287 288 289 289 290 292 292 293 294 296 296 296 297 298 298 299 301 302 304 303 301 301 302 303 305 314 314 312 310 312 313
281 285 287 286 286 284 284 284 284 281 280 283 284 276 275 280 284 284 282 282 282 283 282 282 283 283 283 282 282 283 284 283 283 283 283 282 282 281 282 282 282 282 284 285 285 285 285 287 287 288 288 288 288 288 287 287 286 284 283 282 280 280 280 281 281 282 282 282 284 287 289 290 291 292 294 296 296 296 297 298 298 298 300 301 303 303 302 302 302 301 302 306 316 315 312 311 310
282 283 287 286 285 285 283 282 282 276 274 282 284 274 275 280 281 281 281 281 281 282 282 282 282 283 282 281 281 282 281 283 283 283 282 281 281 281 281 282 282 283 284 285 285 285 286 287 287 287 287 287 287 287 286 286 284 283 282 281 281 280 280 281 282 282 282 283 284 284 286 289 290 291 292 294 295 297 297 297 297 298 299 301 302 302 301 300 301 301 301 302 308 314 313 310 310
282 284 285 284 284 283 283 283 282 280 282 283 284 281 276 277 281 282 282 281 281 281 281 281 282 282 281 281 281 281 281 281 282 282 281 281 281 281 281 282 282 284 284 284 284 285 286 286 286 286 286 286 286 286 285 285 283 282 281 281 281 281 280 280 281 281 282 283 283 284 285 286 287 289 291 293 295 296 297 297 297 297 298 300 301 301 301 301 301 301 301 301 302 311 313 311 311
282 285 285 283 283 283 282 281 280 280 278 276 279 282 276 275 278 284 282 279 279 279 280 281 281 281 280 280 281 280 281 282 281 282 281 280 280 281 282 282 283 283 284 284 284 285 286 286 286 286 285 285 285 285 284 283 283 282 281 280 279 280 280 281 281 282 282 282 282 283 284 285 286 287 289 291 294 296 296 296 296 296 297 299 300 301 301 301 300 299 299 299 300 303 314 313 313
285 284 285 285 284 283 282 279 279 278 276 274 278 280 273 276 278 280 280 280 279 280 280 281 281 280 280 280 280 280 280 281 281 281 280 280 281 282 283 283 283 283 283 285 285 285 285 285 285 285 284 284 284 283 283 282 282 282 280 279 279 278 279 279 279 280 280 281 280 281 281 282 284 286 287 289 291 294 296 296 296 296 296 298 299 300 300 299 299 299 299 299 300 299 306 313 312
288 285 284 281 281 282 281 280 278 274 271 277 279 279 278 273 277 279 278 280 283 282 279 281 280 280 280 280 280 280 281 280 280 281 280 281 282 282 282 282 282 283 282 284 285 284 284 285 285 284 284 284 283 282 282 281 281 281 280 279 278 278 277 277 277 277 279 279 279 279 279 280 282 284 286 287 289 293 295 295 295 295 296 297 298 299 299 299 299 300 300 300 299 299 299 307 311
285 282 280 280 280 276 277 274 278 270 270 274 276 279 279 271 274 280 283 280 284 282 280 280 279 279 279 279 280 280 279 280 280 280 280 281 281 282 282 282 282 282 283 284 283 284 284 284 284 283 283 283 282 282 281 281 280 280 279 279 278 277 277 277 276 276 277 277 278 278 279 279 279 280 282 284 288 292 294 295 295 296 295 296 297 298 299 299 299 300 300 299 299 299 300 300 311
282 279 280 276 272 272 268 271 270 270 272 274 275 276 275 276 280 278 284 284 281 283 282 281 279 279 279 279 280 280 280 279 280 280 280 281 280 281 281 281 281 281 282 283 283 283 284 284 283 282 282 282 281 281 280 280 280 279 279 278 277 278 277 276 276 276 277 277 277 277 277 277 278 279 280 282 286 290 292 294 295 295 294 295 297 298 298 298 299 299 298 298 298 298 299 299 304
280 280 276 274 270 269 274 271 270 269 273 275 275 278 273 277 278 280 282 280 281 281 282 281 280 279 279 279 279 279 280 279 279 280 280 280 280 280 281 281 281 281 282 283 282 283 283 283 282 281 281 281 281 280 280 280 279 279 278 278 277 277 276 276 276 276 276 277 277 276 276 276 276 278 279 281 284 289 291 292 293 295 295 295 296 296 296 297 297 297 298 297 297 298 299 299 300
281 279 280 277 275 274 274 273 273 277 273 273 276 272 270 269 275 278 279 278 279 280 280 279 280 279 279 279 279 279 278 278 279 279 280 280 281 280 280 280 281 281 282 282 282 282 282 282 282 281 280 280 280 280 280 279 279 278 278 278 277 276 276 276 275 276 276 275 276 276 276 276 276 277 278 281 284 287 289 290 291 293 295 295 295 295 295 296 296 297 296 296 297 297 298 298 299
280 280 278 276 276 280 278 274 271 272 273 272 270 274 274 276 278 279 278 279 279 279 279 280 279 279 279 279 279 279 279 279 279 279 280 280 280 280 280 280 281 282 282 281 281 282 282 281 281 280 280 280 279 279 279 278 278 278 278 277 276 276 276 276 275 275 275 275 275 275 275 275 276 277 278 282 285 286 287 289 290 292 293 295 295 294 294 293 293 294 295 295 295 297 297 298 299
279 279 275 278 282 281 277 277 277 274 273 273 274 274 277 277 278 277 278 278 278 278 278 278 278 279 278 278 278 278 279 279 279 279 279 279 279 279 280 280 281 282 281 281 281 281 281 281 280 279 279 279 279 279 278 278 278 277 277 276 276 275 275 274 274 274 274 275 275 275 275 275 276 277 278 281 281 284 287 288 288 290 291 294 293 292 292 292 292 293 293 294 295 297 297 298 299
279 275 278 282 285 284 278 272 272 271 268 273 272 274 276 274 272 276 276 276 277 277 276 277 278 277 277 278 278 278 279 279 279 279 278 279 279 280 280 280 280 281 280 280 281 281 281 280 279 279 279 278 278 278 277 277 277 276 276 276 276 275 275 274 274 274 274 274 274 274 274 274 275 276 277 279 281 283 285 285 286 287 288 291 292 292 292 292 292 292 293 293 295 296 297 298 299
280 279 284 279 275 275 276 271 269 269 270 272 275 274 276 275 276 274 274 275 276 276 276 276 276 277 277 277 277 278 278 278 279 278 278 279 279 279 279 280 280 279 280 280 281 281 280 280 279 279 278 278 278 277 277 277 277 276 276 275 275 275 274 274 274 274 273 273 273 273 273 274 275 275 276 277 278 279 281 283 283 284 286 288 291 292 291 291 291 291 292 293 294 295 297 297 299
283 284 279 283 279 278 273 276 274 276 271 272 274 276 275 276 278 276 276 277 277 276 275 276 277 277 277 277 277 278 278 278 278 278 278 279 279 278 278 278 278 278 279 280 280 280 279 279 279 278 278 278 277 276 276 275 276 276 275 275 275 274 274 274 273 273 272 272 272 273 273 273 274 275 275 276 277 278 279 280 281 283 284 286 289 291 291 291 291 291 291 292 293 294 295 296 298
277 278 275 277 277 279 278 276 273 274 272 272 272 270 275 278 280 279 279 278 278 277 277 277 277 277 277 278 278 278 278 278 278 278 278 278 278 278 278 277 277 277 278 279 279 278 278 278 278 278 277 276 276 276 275 275 275 275 275 274 274 274 273 273 273 273 272 272 272 273 273 273 274 274 275 276 276 277 278 279 280 282 283 285 287 289 291 290 290 290 291 291 292 293 294 295 297
280 279 278 279 276 274 272 272 276 274 274 270 270 271 278 279 280 281 280 280 279 278 278 278 277 277 277 278 278 278 277 278 277 277 277 277 277 278 277 276 277 277 278 278 278 278 278 277 277 277 276 276 275 275 274 274 274 274 274 274 273 273 273 273 272 272 272 272 272 272 272 273 273 274 275 275 275 277 278 279 280 281 282 284 285 288 290 290 290 290 290 291 291 292 293 294 296
Wind_Speed
5 4 3 3 1 0 1 0 1 2 4 1 2 2 1 1 1 4 5 4 4 0 0 2 4 4 2 1 0 3 5 4 2 7 2 1 2 1 5 8 9 10 9 5 2 3 1 2 4 2 1 1 1 1 2 4 6 5 7 8 9 10 10 11 13 13 12 13 12 11 10 10 10 10 10 10 9 10 10 10 8 8 10 11 12 13 13 13 13 13 13 13 12 9 7 8 8
4 3 3 2 2 1 1 1 3 1 4 6 3 2 2 1 7 3 4 5 1 0 1 1 1 1 3 2 4 9 13 8 6 8 4 2 8 4 11 10 9 10 9 9 1 1 3 2 3 2 1 2 2 3 4 5 7 6 5 6 8 11 12 13 14 15 14 13 13 12 11 11 11 11 10 11 10 11 11 10 8 7 9 11 12 14 13 13 13 14 14 13 13 10 7 8 9
3 4 4 4 1 1 1 1 1 2 6 4 2 2 1 7 3 1 5 4 1 0 2 3 2 1 2 6 4 4 2 11 12 2 3 4 9 13 13 11 9 8 8 9 8 2 1 3 3 2 2 1 3 5 6 6 7 7 7 7 9 12 11 13 12 10 12 13 12 13 12 11 11 11 11 11 12 12 11 10 9 9 11 12 13 13 13 12 13 13 14 13 13 10 8 8 9
3 1 0 2 2 2 1 2 2 4 4 5 3 5 3 1 3 1 4 4 4 3 3 4 3 1 2 6 3 7 6 5 6 5 2 9 3 8 10 9 9 9 10 9 9 8 6 3 1 1 1 2 3 4 7 8 8 8 7 8 10 10 10 13 13 13 14 13 14 13 10 11 15 13 12 12 12 12 12 11 11 11 12 13 13 13 13 13 12 12 13 14 13 11 8 9 9
2 3 2 1 2 2 2 1 1 4 5 1 4 1 2 2 3 4 0 4 4 6 3 1 2 4 10 9 6 5 7 3 8 7 2 3 5 5 6 7 8 11 12 9 8 7 6 10 9 8 8 8 7 8 8 9 10 10 9 8 10 10 10 11 12 13 12 14 16 14 11 12 14 14 14 13 12 12 12 12 12 12 12 13 13 13 13 12 13 13 12 12 13 12 9 9 10
2 2 1 2 1 2 1 3 3 7 2 2 4 0 0 1 4 3 1 2 4 5 3 4 2 1 5 5 5 5 8 6 3 4 2 6 6 6 5 6 8 11 10 11 10 7 7 11 10 9 10 11 12 12 12 12 11 11 11 11 11 11 11 12 13 12 14 16 15 14 12 13 14 14 13 12 10 12 12 12 12 12 10 10 11 13 14 14 14 13 13 11 12 12 8 10 11
2 3 1 2 1 2 3 3 3 4 3 4 4 3 3 2 1 3 2 2 1 6 3 2 1 5 9 3 9 7 4 3 2 3 3 6 5 6 5 7 7 10 10 9 8 8 8 11 10 9 7 9 10 11 13 14 14 14 13 12 13 13 13 11 11 12 11 14 16 16 14 14 11 13 11 9 10 10 11 12 12 10 8 10 11 12 14 15 15 12 9 13 15 14 9 12 13
0 2 1 3 1 2 2 0 1 3 1 5 4 5 2 3 1 2 1 3 1 2 2 2 5 13 3 9 8 2 5 5 3 4 5 6 6 10 11 11 13 12 13 11 10 10 10 11 11 6 8 8 8 9 12 13 14 15 15 14 13 13 15 13 10 12 12 14 15 12 11 15 13 13 14 9 10 10 12 10 8 9 10 10 10 11 13 14 13 12 11 13 16 14 14 12 14
2 1 1 4 3 2 1 1 1 0 3 3 4 4 4 2 2 1 1 1 3 4 2 3 4 5 1 11 9 2 6 7 7 5 8 11 13 12 12 14 14 12 14 12 11 11 11 16 15 11 7 9 9 11 12 13 13 15 16 16 15 14 14 14 13 12 13 13 11 11 12 10 9 12 14 10 12 14 13 10 11 10 11 11 11 12 12 13 15 14 12 13 13 15 14 13 15
1 2 2 2 2 3 1 0 4 1 4 3 5 3 1 0 1 3 3 10 2 3 4 0 10 11 7 10 1 9 7 10 5 10 12 10 10 11 13 12 11 11 12 13 11 11 11 17 21 20 15 11 11 11 12 11 12 13 15 16 17 17 17 15 13 14 14 13 13 12 10 9 10 11 10 9 11 12 13 11 12 14 13 13 13 13 14 14 15 15 14 12 12 12 13 13 15
2 1 2 2 4 1 1 1 2 1 5 2 2 1 2 0 3 2 4 5 4 3 3 6 5 9 10 5 7 1 5 7 15 14 10 9 11 11 11 10 8 8 11 12 11 11 11 11 18 20 21 20 13 12 13 12 12 12 12 14 16 16 18 18 18 15 15 13 12 13 10 10 11 10 10 10 11 12 14 15 17 17 15 14 14 14 14 14 14 15 14 12 12 9 10 11 14
3 2 4 2 0 1 1 4 3 2 3 2 1 1 2 4 2 2 4 6 1 6 5 5 1 8 9 4 3 3 5 14 10 8 9 7 11 10 9 9 9 9 8 10 11 10 10 9 9 14 19 21 20 16 12 11 12 12 13 13 14 15 16 17 18 18 18 15 14 14 13 11 11 12 12 11 11 12 14 16 18 18 17 14 14 15 14 14 14 13 12 11 10 10 9 10 14
2 1 3 2 1 0 1 5 1 3 1 1 2 0 2 7 2 3 4 5 3 7 5 8 0 5 3 3 2 4 13 12 10 8 8 7 7 7 7 10 10 10 10 10 13 12 10 11 11 10 13 19 19 19 18 18 14 10 13 14 14 15 15 16 18 19 19 20 19 15 13 11 11 10 10 11 11 11 13 15 16 16 15 13 14 15 14 14 12 11 11 11 11 11 10 11 17
2 1 2 1 0 0 1 2 1 4 1 1 1 0 1 2 1 4 5 6 5 7 1 4 4 7 7 3 3 5 7 7 9 9 7 8 7 7 8 8 9 10 10 10 14 13 13 12 12 11 11 13 15 15 16 18 18 18 15 12 13 14 15 17 17 16 17 17 16 14 13 13 10 10 11 11 12 13 13 15 19 17 15 14 14 14 14 13 11 11 12 12 12 12 11 13 17
1 1 2 1 3 1 0 2 4 4 1 0 2 3 2 1 4 4 7 9 9 1 2 15 2 6 3 3 3 5 4 5 8 8 8 8 9 9 8 8 8 9 10 10 12 13 13 12 12 11 11 12 14 12 12 14 19 19 19 18 16 16 15 15 15 16 16 15 15 15 14 13 13 12 12 13 14 15 14 15 17 19 14 14 14 14 13 12 12 12 12 13 14 13 12 14 17
2 2 1 1 2 0 1 3 1 6 1 1 2 6 6 2 1 3 1 9 3 5 10 6 11 5 4 11 3 4 5 6 6 7 9 10 9 8 9 9 8 9 8 9 11 12 11 12 11 10 11 11 12 11 12 13 16 19 19 18 18 17 16 15 16 15 16 15 14 14 14 13 11 11 13 12 14 17 18 16 18 15 15 15 15 14 13 13 13 13 13 14 14 14 14 15 18
2 3 1 2 3 1 1 1 2 1 2 1 1 2 3 0 1 4 8 13 16 8 16 7 8 5 8 5 4 4 5 5 8 9 11 10 8 9 9 9 10 10 9 9 10 11 12 13 13 11 11 11 13 11 10 10 13 17 15 18 18 17 17 15 16 15 14 13 14 13 12 10 9 8 10 9 12 11 14 16 15 15 15 16 15 14 14 14 14 14 14 14 15 15 14 17 18
2 1 2 2 3 2 1 1 1 2 3 0 2 0 6 2 1 3 10 15 13 11 14 8 12 10 7 3 4 4 5 8 8 11 10 8 6 8 9 8 9 10 10 9 10 12 11 11 12 13 12 12 14 11 9 9 10 13 11 12 12 14 14 15 11 10 10 9 12 11 8 8 8 9 9 10 10 11 12 15 16 16 16 16 15 15 15 15 15 15 16 15 15 13 14 10 10
2 0 2 4 1 1 1 1 2 2 2 1 1 2 4 1 2 0 7 7 10 11 8 9 11 8 8 8 6 7 6 7 8 9 9 9 8 9 8 6 7 8 9 8 8 10 10 10 10 11 13 11 13 12 10 10 12 10 10 11 10 12 12 13 12 11 9 9 9 9 8 7 8 9 9 10 10 14 14 15 16 17 17 17 16 16 16 16 16 16 16 15 13 14 10 7 6
0 2 2 2 2 1 2 5 3 3 4 3 1 2 4 1 1 0 5 6 6 12 9 5 8 8 6 4 6 5 7 7 7 9 9 8 7 6 8 7 8 7 7 6 6 6 10 10 10 10 13 12 12 11 10 11 12 10 11 11 10 10 10 10 11 11 10 10 10 9 8 9 9 8 13 16 14 11 11 15 18 19 19 18 17 13 14 14 16 16 15 14 11 7 6 7 7
1 2 2 2 0 3 2 5 4 4 5 1 1 1 3 3 1 4 9 12 5 4 3 10 10 9 7 5 5 5 7 7 7 7 8 8 6 5 5 6 5 6 6 6 6 9 8 12 9 9 12 11 11 11 11 12 12 9 11 12 12 11 10 11 10 10 10 11 11 9 9 9 9 8 8 9 9 9 9 9 8 8 8 9 13 9 8 9 9 7 7 8 7 7 8 8 8
1 2 2 2 2 1 0 5 4 4 5 4 2 3 1 0 4 3 3 8 5 4 6 10 11 9 9 7 4 4 5 6 6 6 6 5 5 5 5 5 5 5 6 6 7 8 7 10 7 7 9 9 9 10 9 11 12 10 12 12 12 12 11 12 11 11 10 10 10 11 10 9 9 8 8 8 9 10 10 8 8 8 8 9 8 8 7 8 8 8 8 7 7 7 9 9 10
2 2 1 1 0 0 1 1 1 5 3 2 1 1 2 4 4 3 9 7 4 7 9 11 10 9 8 7 6 6 6 6 6 6 6 7 6 6 5 4 5 5 6 5 4 6 6 9 6 7 8 8 8 9 7 9 9 8 9 11 12 11 11 12 12 12 13 13 10 9 10 11 10 9 9 9 9 8 10 10 9 8 9 8 8 8 9 9 8 8 7 8 7 8 9 9 9
2 4 1 1 3 3 2 2 3 4 7 1 1 0 3 8 6 1 11 5 9 8 10 11 10 9 8 9 6 7 5 6 5 5 5 5 5 6 4 6 5 4 5 6 5 7 6 10 7 8 8 8 8 9 8 9 7 8 9 9 10 11 11 10 12 13 13 13 13 11 9 9 10 10 10 10 10 9 9 10 10 9 9 9 9 9 10 8 8 8 8 7 8 8 9 9 8
1 2 0 2 2 2 2 2 3 1 1 1 5 1 4 5 8 5 6 8 8 9 9 10 9 9 8 8 6 6 6 6 7 5 4 4 5 5 5 4 5 4 5 7 6 7 6 8 8 7 8 8 9 9 9 9 8 7 7 8 9 10 9 9 11 13 13 12 12 13 11 11 10 10 10 11 10 10 10 9 9 10 10 10 9 10 10 9 9 8 8 9 8 8 8 8 8
0 1 0 1 2 2 0 1 0 1 0 3 5 6 3 11 12 5 8 7 8 9 9 9 9 9 7 6 6 5 5 6 5 5 3 2 3 5 6 4 5 6 5 6 6 6 5 7 9 8 8 9 9 9 9 9 9 8 8 9 9 9 8 10 11 10 10 11 12 14 15 12 11 11 11 10 11 12 11 10 9 9 10 8 8 10 10 10 10 9 9 9 9 9 9 8 8
1 1 1 2 6 3 1 3 1 1 2 1 2 0 4 6 9 2 3 7 8 9 9 7 9 8 6 5 4 4 5 5 6 2 3 2 4 6 6 5 5 6 4 7 6 6 5 6 9 8 8 9 9 11 11 11 11 10 10 10 9 9 10 10 10 11 9 10 12 15 14 13 12 12 11 12 12 12 12 11 11 9 9 10 10 10 8 10 10 11 11 11 10 10 9 8 8
3 1 5 5 7 3 3 0 1 0 1 2 3 1 3 7 1 9 12 9 9 12 9 8 7 6 6 5 4 2 3 4 5 5 6 6 6 5 6 4 5 5 5 6 5 4 4 7 10 9 8 10 11 12 12 12 12 12 12 11 11 11 11 10 10 10 10 10 11 13 13 13 13 13 14 13 13 13 13 12 12 10 10 9 9 9 9 10 10 10 12 11 10 9 8 8 8
0 3 4 6 3 2 2 4 2 2 2 2 2 1 2 7 4 8 13 10 8 11 10 8 7 6 6 5 4 4 4 4 5 5 4 1 2 2 5 4 4 4 4 4 5 5 8 9 9 9 8 10 11 12 11 10 10 12 13 12 11 11 11 10 10 10 10 10 11 11 12 14 12 12 13 13 13 13 13 14 12 11 11 10 10 11 12 10 9 8 8 8 7 7 8 8 8
1 1 3 3 3 4 7 1 1 3 2 1 3 6 5 7 6 12 11 11 9 10 8 7 6 6 5 4 4 3 3 4 4 3 0 1 1 3 4 5 4 3 4 5 6 8 8 8 8 8 10 12 12 11 10 10 10 10 10 11 12 13 10 11 11 10 10 10 10 11 12 12 13 12 11 13 12 12 13 13 13 13 11 12 11 11 11 10 9 10 10 10 10 10 11 10 9
1 1 2 1 3 4 3 5 3 4 2 2 3 4 8 1 11 11 10 12 14 10 8 6 6 5 4 4 4 4 3 3 3 1 1 1 1 2 4 4 4 5 6 7 8 9 11 10 8 8 10 11 12 11 11 11 11 10 11 11 11 12 13 12 11 10 10 10 10 10 10 12 12 12 11 11 12 12 13 13 13 13 13 13 12 11 10 9 11 12 10 11 10 10 11 11 11
0 1 3 2 4 5 5 3 5 8 1 3 2 4 8 6 11 12 9 9 11 11 8 7 6 5 4 4 4 4 4 2 1 0 1 1 1 3 5 6 5 6 7 7 7 8 9 9 8 8 10 12 11 12 12 12 11 10 10 11 12 13 12 12 11 11 11 10 10 11 11 11 12 11 11 10 10 11 12 13 12 13 15 13 14 13 11 10 10 12 14 14 12 12 12 11 10
2 1 4 3 1 3 1 4 3 6 2 0 7 7 1 1 4 6 5 10 9 10 8 7 7 6 5 4 4 3 3 1 1 1 2 1 3 5 5 6 7 6 6 6 7 8 8 8 8 9 11 11 12 14 14 13 12 12 13 14 14 13 12 12 12 12 11 11 10 11 12 12 10 11 11 10 10 11 11 12 12 13 13 13 12 13 12 8 10 11 11 13 15 14 13 14 11
2 2 1 2 3 3 3 3 2 2 2 3 3 5 6 2 11 8 6 9 9 10 9 8 6 5 4 4 4 3 2 1 1 1 2 4 5 8 6 7 6 6 5 5 5 6 6 6 7 8 10 10 11 12 12 11 11 14 14 13 13 13 13 12 12 12 12 12 12 12 13 12 11 10 10 9 9 10 10 12 13 14 12 12 12 14 15 12 13 13 13 13 14 13 13 14 13
1 4 5 8 4 3 4 0 3 3 3 6 3 5 8 2 7 8 7 8 9 9 9 8 7 6 4 4 4 3 3 2 0 0 2 5 7 5 5 5 6 6 5 5 5 5 5 6 7 9 9 11 11 11 10 10 13 14 14 14 14 14 12 12 12 13 13 14 14 14 13 12 11 11 10 9 8 9 10 11 12 14 12 11 12 13 15 14 14 16 16 15 14 14 15 15 15
4 5 4 3 4 8 7 4 2 8 5 6 6 8 6 4 8 7 6 6 9 7 6 6 6 5 5 4 3 3 3 1 1 0 2 5 4 4 4 5 6 5 5 5 5 5 6 7 6 7 8 10 10 8 9 11 12 14 16 16 16 13 12 12 13 13 14 15 15 15 14 13 11 11 10 8 7 8 9 10 12 13 13 12 12 13 15 15 17 17 19 22 17 13 12 14 14
2 1 2 7 6 8 5 5 5 3 1 7 9 7 6 5 11 11 7 7 6 9 9 8 6 6 6 4 4 4 2 2 0 1 3 4 3 4 4 5 5 6 5 5 6 6 7 9 9 9 9 10 10 11 11 12 13 15 16 17 17 15 13 14 14 14 14 15 18 17 15 13 12 11 10 8 8 8 8 9 11 12 13 12 12 13 14 18 16 15 14 12 17 16 11 9 13
2 3 3 8 4 9 7 5 0 1 3 3 3 4 7 7 8 10 6 9 11 13 11 9 8 7 6 6 4 4 3 1 2 1 4 4 3 4 5 5 5 6 7 6 6 7 7 6 5 7 9 10 10 10 11 12 12 12 15 17 17 16 14 14 15 14 15 15 18 18 14 13 12 12 10 8 8 7 8 9 9 11 12 12 12 13 12 13 19 17 14 16 19 20 15 16 14
2 4 3 4 8 7 10 6 3 2 1 7 4 6 8 7 7 8 12 15 11 10 12 10 11 8 6 5 5 4 1 0 2 2 2 3 4 4 4 4 4 4 5 5 6 7 7 5 5 8 10 11 11 11 11 12 13 15 16 17 15 14 13 14 15 16 18 20 18 17 16 14 14 12 11 9 9 8 8 8 9 9 11 12 12 13 11 14 18 19 18 15 10 12 14 16 18
3 4 2 8 4 2 6 2 2 3 1 4 4 13 11 7 8 8 12 12 5 6 7 8 8 9 8 7 6 4 4 1 1 2 1 3 3 3 4 4 5 5 5 5 7 8 4 5 8 10 11 11 11 11 13 14 15 16 14 12 15 15 18 18 21 19 17 16 16 16 16 14 13 12 11 11 10 9 8 8 8 8 10 11 11 11 10 12 17 18 19 17 20 16 11 10 16
4 5 5 5 4 4 5 5 4 5 5 2 9 12 11 9 7 3 4 2 8 6 7 6 5 6 7 5 4 5 5 2 1 1 2 3 4 4 4 4 4 5 5 6 7 7 4 8 10 11 11 11 12 14 15 14 15 15 14 15 13 14 13 12 12 12 12 13 15 14 14 14 15 14 13 13 11 10 8 8 7 8 9 11 10 10 9 9 13 15 20 19 14 15 14 12 15
3 5 8 6 2 3 4 4 6 5 6 4 2 7 5 5 12 12 6 4 8 5 9 8 8 7 5 6 6 5 4 2 1 0 1 1 2 3 4 4 4 4 5 5 5 4 6 9 10 11 9 10 13 14 14 13 14 14 15 15 17 16 16 15 14 17 18 19 18 18 18 16 17 16 14 12 11 10 10 8 7 7 8 10 9 9 8 8 10 14 15 19 22 21 18 15 14
1 6 3 2 2 0 2 3 3 5 4 3 2 4 13 4 5 8 6 9 11 4 8 8 8 8 6 6 5 5 4 0 0 0 0 2 3 3 4 4 5 5 5 5 4 5 6 9 8 8 9 11 12 12 13 13 14 13 15 14 14 14 16 14 14 13 13 15 14 19 18 16 17 18 17 14 12 12 10 8 7 7 7 8 10 8 9 9 9 11 13 15 20 12 14 17 18
5 1 2 2 0 3 5 3 5 8 0 4 4 2 10 13 7 7 13 13 13 10 9 9 9 8 7 7 6 4 4 3 2 0 1 2 2 3 4 5 4 5 5 4 4 5 7 8 7 8 11 12 11 11 13 13 13 14 16 16 14 14 12 18 18 14 13 14 17 17 14 14 16 18 18 15 13 12 11 9 8 7 6 6 9 8 8 8 9 10 11 14 17 17 12 15 17
3 1 3 1 3 5 5 5 6 4 4 9 6 5 4 8 4 10 13 9 9 13 13 12 11 8 8 7 6 4 4 2 2 0 1 2 4 5 5 4 3 4 4 4 5 6 6 6 7 10 13 12 11 12 13 13 12 13 13 13 16 13 14 14 14 15 14 12 17 15 15 17 15 17 18 17 15 14 12 10 8 7 5 5 7 8 7 7 9 11 11 12 15 17 18 17 17
2 3 1 2 4 4 4 5 5 3 1 13 7 8 6 14 5 6 4 9 13 16 15 13 12 10 9 7 5 5 2 2 1 1 1 3 4 6 6 2 3 4 4 4 5 5 5 6 10 12 13 11 10 12 13 15 14 12 13 14 16 16 14 14 14 16 14 14 14 15 16 16 16 17 17 17 16 16 14 10 8 7 6 5 6 7 7 7 9 10 10 10 15 18 18 14 18
1 1 2 4 3 5 0 2 1 3 4 17 5 11 9 10 4 11 12 12 18 11 6 9 8 8 8 7 6 4 4 2 1 1 2 4 6 8 4 4 4 5 5 5 6 5 5 8 11 14 13 11 10 12 14 15 13 12 12 14 16 17 18 17 18 18 16 16 15 16 15 16 16 17 16 16 15 15 15 11 9 8 7 5 6 7 6 6 8 9 9 10 11 17 17 20 14
1 1 1 6 7 4 2 2 3 1 9 7 3 10 10 7 5 7 9 2 6 13 18 17 14 11 8 6 5 5 4 2 1 1 4 6 8 6 3 5 6 6 6 7 5 5 7 9 12 15 14 12 12 13 14 14 13 12 12 13 15 15 16 16 18 20 19 18 16 16 14 15 17 17 18 18 16 16 14 11 9 8 7 6 6 6 6 6 6 8 9 8 9 12 15 19 17
4 2 1 3 6 5 3 3 2 6 10 2 0 3 3 15 15 4 10 11 5 13 15 18 15 11 8 6 6 5 3 3 1 3 5 7 4 6 6 5 5 5 6 7 7 6 8 10 13 14 15 13 14 14 14 15 14 13 12 13 14 13 14 16 16 18 17 16 15 15 16 16 16 17 17 17 17 17 14 14 12 10 8 7 7 5 6 6 5 7 9 11 11 12 12 15 18
4 3 3 1 3 2 9 4 3 4 4 2 3 4 7 6 8 7 11 8 6 8 10 11 12 11 8 7 5 4 4 3 4 5 6 3 5 5 4 4 4 5 6 7 6 7 9 11 13 13 15 14 13 14 15 15 15 13 12 12 13 13 14 14 14 15 15 14 13 15 16 16 16 17 19 19 18 16 13 14 15 15 11 7 6 6 5 6 5 6 8 11 12 11 11 15 18
8 3 7 7 5 2 9 4 9 12 7 2 4 3 7 1 4 5 4 4 6 7 9 9 9 8 7 6 5 5 5 4 5 4 2 5 5 4 4 4 5 5 7 6 5 7 10 12 13 14 16 16 15 16 14 16 16 14 12 12 12 12 13 13 12 12 14 15 13 14 15 15 16 16 18 18 19 17 15 14 15 17 16 10 7 6 6 5 5 6 7 10 10 10 11 13 16
3 2 5 3 7 4 10 3 2 5 9 8 3 7 4 4 2 3 3 7 7 8 9 9 8 6 6 6 5 6 4 4 2 2 5 5 4 4 4 5 5 6 6 5 6 8 11 13 13 14 14 15 15 14 14 15 16 15 14 14 14 13 11 12 12 12 12 12 15 13 16 16 16 16 17 18 16 14 16 14 14 15 17 14 9 7 6 6 5 5 6 8 11 8 11 13 16
1 4 5 7 2 3 4 3 2 1 1 16 3 8 6 2 1 1 2 7 6 6 7 8 7 7 7 6 5 5 3 0 3 4 4 4 4 4 4 4 5 6 6 5 6 9 11 13 13 15 16 16 15 13 14 14 15 15 15 14 14 14 14 14 13 14 13 13 12 12 13 13 15 13 16 17 17 16 15 13 14 15 17 15 11 8 7 6 5 5 5 8 11 10 11 13 13
6 4 7 1 2 2 3 5 3 1 4 11 5 9 11 6 9 4 3 6 8 7 8 7 7 7 7 6 6 3 1 1 2 2 3 4 4 4 4 4 5 6 5 6 10 10 10 10 10 13 15 17 16 15 17 16 16 15 15 16 15 15 13 13 12 14 14 13 13 12 13 14 14 13 17 17 15 17 14 15 12 14 15 15 12 10 8 7 6 5 6 7 9 11 12 12 12
4 3 2 2 3 4 1 5 4 3 7 9 5 5 15 9 8 5 9 11 12 10 7 7 7 7 7 5 4 1 1 1 1 3 4 4 4 5 5 6 5 4 4 7 9 11 11 10 11 11 14 14 14 13 15 16 15 13 12 14 15 15 13 13 13 13 13 14 14 14 13 14 14 14 15 12 16 15 14 14 12 13 13 16 14 12 10 8 7 6 6 7 8 10 12 13 12
2 2 1 1 2 5 3 5 3 2 12 6 12 3 16 7 8 16 16 16 14 11 8 9 9 7 7 5 4 4 3 3 3 3 3 4 5 5 5 6 5 5 6 8 9 10 11 11 12 13 13 14 15 15 14 15 14 14 16 15 15 14 13 12 13 13 14 13 14 13 14 15 15 14 13 14 14 15 14 15 15 13 13 14 14 13 11 9 8 7 7 7 7 10 13 13 12
2 2 2 1 2 2 2 1 5 6 6 7 11 14 5 4 5 13 15 16 14 14 12 8 7 8 7 7 6 5 5 2 1 3 4 5 5 5 5 5 4 4 5 7 8 10 10 11 12 12 14 16 17 16 14 14 14 15 16 17 17 15 16 14 14 13 13 14 14 13 14 12 14 15 12 15 14 14 17 16 13 13 11 13 14 15 12 10 8 8 7 7 8 10 12 12 10
8 10 10 12 6 4 4 11 5 5 7 7 4 20 10 3 2 7 9 10 12 10 10 9 8 9 9 6 6 6 2 1 2 4 4 4 5 5 5 4 3 5 8 9 9 9 10 11 12 13 13 13 14 16 15 16 15 15 16 16 17 16 15 14 14 14 14 14 13 12 13 14 14 14 12 12 15 14 14 12 14 12 14 13 14 15 14 10 9 8 8 7 7 9 12 12 10
Wind_Direction
312 308 261 235 168 129 44 352 64 320 65 49 129 46 227 28 100 55 33 7 34 290 151 5 45 13 81 192 160 96 38 48 316 117 78 285 198 263 323 347 349 352 349 326 127 142 148 149 152 129 56 298 217 272 243 234 246 242 223 232 235 235 237 237 239 239 240 238 233 235 237 236 235 238 241 247 254 252 253 257 249 229 242 258 271 278 282 281 280 279 276 271 268 267 197 205 211
295 320 313 204 207 93 288 139 100 41 43 49 359 86 8 340 48 84 79 84 173 261 287 51 49 23 8 110 119 82 37 17 28 102 140 279 255 323 356 343 347 357 355 334 18 166 148 183 172 145 146 1 309 252 246 240 251 251 258 246 243 243 243 245 240 237 235 237 237 236 237 241 240 242 246 252 254 254 255 263 265 250 248 258 265 273 277 279 280 278 275 271 267 265 193 199 207
315 6 353 22 31 106 257 39 51 68 83 68 344 40 327 46 66 78 108 112 126 314 17 25 97 34 13 40 54 89 95 35 24 52 133 332 21 346 338 341 355 2 2 357 347 25 214 163 180 181 189 212 324 301 278 264 241 241 243 251 256 254 266 273 274 283 277 267 272 248 246 258 252 242 247 252 255 256 257 258 265 263 259 261 261 266 270 272 275 276 274 270 268 265 207 195 202
317 194 109 57 346 23 66 28 108 115 116 166 67 331 51 101 22 75 138 132 94 75 39 19 69 247 78 34 32 97 62 32 26 343 24 9 340 300 322 347 356 8 13 8 17 13 358 45 148 355 311 328 323 316 315 303 283 264 249 241 249 260 238 246 245 241 253 258 255 260 249 235 254 257 255 258 259 261 262 262 261 261 263 262 260 261 263 270 270 267 268 268 266 264 220 197 196
354 314 148 88 106 358 72 196 98 102 63 172 123 299 46 70 11 33 214 125 86 82 53 28 61 339 62 54 7 61 297 234 38 25 21 321 318 296 327 360 15 19 13 13 16 17 19 31 19 3 347 336 328 322 318 316 309 297 279 261 253 250 251 248 251 253 249 248 243 241 250 253 246 248 261 261 259 260 260 260 264 263 258 261 262 260 263 264 264 257 253 257 261 259 221 204 192
309 10 17 94 96 183 47 34 23 80 190 135 97 163 93 66 31 20 57 36 75 63 111 65 131 359 43 46 47 75 339 31 338 353 23 333 322 312 341 18 28 27 14 13 14 16 12 28 26 19 2 353 342 337 331 325 316 304 298 287 273 263 257 258 256 247 245 250 255 241 246 251 249 253 257 261 262 255 256 258 261 263 262 259 262 264 263 263 259 263 272 275 254 252 222 199 195
316 38 4 22 1 62 138 120 143 136 359 113 138 154 114 28 342 50 2 74 27 58 15 108 88 86 104 160 79 61 33 342 9 328 342 292 307 342 1 22 35 28 15 7 7 8 4 11 14 14 8 354 343 335 328 325 316 307 301 295 292 289 281 275 268 264 266 267 263 279 276 264 270 269 265 273 272 259 252 257 258 257 254 253 249 253 259 261 266 272 268 271 283 283 238 194 195
25 88 302 88 301 55 15 141 124 156 29 102 168 110 78 39 29 58 348 106 243 89 7 349 67 89 50 49 95 28 21 19 9 300 313 337 338 6 21 20 27 21 15 10 5 359 352 354 359 4 350 342 330 323 320 317 316 312 304 299 294 292 288 280 266 263 252 250 255 241 252 276 299 313 296 288 289 294 278 253 232 230 238 242 241 245 254 262 266 269 263 256 265 268 273 201 196
326 79 346 64 20 14 46 4 88 272 111 66 70 112 118 122 86 74 348 335 91 76 42 322 78 85 136 75 79 358 30 350 335 344 12 21 29 30 35 34 37 29 25 21 18 15 13 4 356 349 340 335 327 324 322 321 318 318 317 312 309 304 297 291 274 257 248 252 261 267 263 264 246 251 262 265 270 263 259 242 232 233 236 239 244 250 253 256 260 262 264 257 249 248 256 231 197
356 93 335 106 127 344 351 301 69 140 118 134 109 91 102 104 25 88 72 41 81 98 3 15 76 95 92 63 173 21 360 340 303 20 16 24 36 40 39 35 39 38 31 24 22 21 18 14 14 11 354 330 326 324 322 318 316 316 317 317 316 315 312 306 291 277 272 257 257 261 260 251 252 257 263 259 248 253 257 257 259 247 238 242 245 246 250 255 259 263 267 267 258 248 242 243 215
357 9 143 63 32 25 74 245 120 124 122 143 63 32 79 248 99 52 68 115 58 86 358 34 74 105 91 90 79 215 332 331 21 11 359 18 35 37 36 29 29 35 36 28 21 20 18 18 15 12 10 7 347 328 325 317 312 314 312 312 314 312 312 313 308 300 287 279 267 259 246 244 250 255 261 261 259 258 254 252 253 253 244 239 241 243 245 250 254 259 263 266 268 263 246 232 229
17 3 15 92 146 150 232 144 158 97 47 33 29 324 22 102 71 39 33 76 38 51 48 13 107 127 84 105 58 13 337 18 14 2 8 19 36 32 33 28 24 24 32 31 22 19 16 12 12 11 13 7 3 356 344 322 312 313 309 307 304 303 305 304 304 306 303 294 281 277 269 254 246 256 259 261 262 263 256 247 248 250 247 236 238 241 243 244 248 254 258 260 259 255 249 219 213
88 75 66 86 226 149 240 87 179 109 41 334 178 260 108 59 78 82 98 114 80 63 14 326 258 74 82 83 43 352 26 5 5 4 10 24 32 32 31 27 19 21 21 22 24 16 13 13 8 6 7 10 5 359 355 356 344 311 315 311 304 303 300 301 302 300 299 297 295 286 278 259 246 241 244 248 256 265 268 268 258 243 238 236 238 240 240 239 239 243 248 253 252 250 245 217 211
103 171 111 267 16 270 103 145 73 90 15 233 269 27 117 110 18 135 118 63 49 84 269 317 66 116 94 87 27 21 23 353 4 7 10 19 26 29 30 26 22 19 20 23 21 15 13 9 9 8 4 7 5 2 358 354 353 351 341 321 315 308 304 303 297 293 291 295 294 290 284 285 270 254 252 254 255 258 257 256 257 247 237 235 239 238 239 235 231 234 243 249 249 244 242 221 209
87 145 89 133 313 57 255 93 143 123 128 140 331 86 81 1 116 64 100 91 24 336 211 32 283 65 313 100 10 28 13 357 11 7 18 17 22 25 22 23 24 21 20 25 24 18 13 9 7 8 9 7 3 1 358 353 353 351 348 346 337 324 314 303 296 289 286 283 284 285 284 277 278 269 256 252 254 253 250 248 253 248 234 232 233 235 233 231 232 234 238 245 249 245 238 223 206
162 83 92 84 295 85 286 94 54 96 134 140 30 104 77 349 72 72 42 103 128 17 60 39 27 87 94 81 100 51 29 23 17 22 31 28 18 22 19 17 18 17 17 20 21 19 13 12 9 7 7 9 5 358 355 353 353 352 351 347 343 336 323 311 303 295 289 285 283 282 280 274 264 269 264 254 249 248 247 242 235 233 234 233 233 232 230 234 237 239 240 241 245 244 235 222 209
44 83 43 32 309 101 268 97 121 81 142 23 349 59 110 204 325 66 74 92 82 59 65 42 81 67 76 102 101 60 32 34 31 33 36 29 22 22 17 18 12 13 10 16 18 12 10 10 8 9 5 7 4 359 353 351 349 351 351 348 345 343 336 322 309 304 297 290 285 279 277 274 268 262 264 259 245 241 240 243 241 237 234 234 231 227 229 234 240 242 243 242 241 239 231 222 211
63 53 104 348 205 78 242 111 132 142 109 264 54 130 112 117 350 143 87 72 93 84 83 80 67 67 83 86 74 59 42 44 34 42 36 36 26 28 23 12 16 11 5 4 9 11 9 7 6 7 4 2 4 1 355 350 345 347 348 348 346 345 342 337 326 313 301 294 291 290 281 271 267 264 258 254 257 250 244 241 243 241 239 234 228 226 226 230 237 241 241 242 242 236 228 223 216
78 59 82 225 186 236 107 141 55 96 113 161 181 109 118 196 133 41 88 114 110 89 82 90 82 67 60 53 50 47 45 47 44 49 45 39 34 35 27 12 15 9 6 359 360 8 8 3 5 6 3 0 3 2 354 349 347 346 345 344 341 343 340 339 336 329 318 305 294 288 286 281 272 265 259 251 245 247 245 239 236 236 237 235 228 224 225 227 231 238 241 243 240 233 225 217 200
288 103 320 249 223 275 84 86 105 118 153 59 12 55 102 263 106 59 107 111 94 111 125 81 95 98 78 62 48 48 49 48 48 46 43 38 33 34 32 21 13 9 357 352 342 0 9 8 3 3 2 359 0 360 354 350 347 348 346 343 342 338 337 335 333 330 327 320 311 299 291 288 281 273 268 260 252 249 249 244 239 233 231 230 224 225 227 226 230 236 240 240 237 232 221 212 204
298 71 191 243 278 28 336 93 133 112 90 112 20 23 72 353 31 103 143 78 46 73 138 141 134 122 106 82 67 52 52 52 44 45 43 33 24 29 42 28 19 357 345 337 359 0 3 6 0 4 6 354 360 359 352 350 342 344 347 343 341 340 336 334 329 326 323 323 321 313 303 294 291 290 285 281 273 256 245 245 244 239 234 230 221 223 217 224 227 231 237 238 233 228 219 211 202
77 209 211 230 352 72 301 92 77 89 67 69 54 70 161 218 36 66 115 118 163 153 127 119 123 124 118 111 102 83 70 67 61 56 51 43 30 18 20 18 8 7 350 5 354 350 356 1 355 359 8 351 0 357 349 345 339 347 348 342 338 337 337 335 331 327 322 320 321 319 314 307 300 291 290 283 275 273 265 244 235 228 220 221 209 219 216 215 217 221 224 226 225 222 215 210 204
334 309 288 15 155 189 299 66 37 76 43 49 56 218 49 82 69 40 83 115 132 126 127 119 113 117 120 113 99 71 63 59 59 57 49 39 22 19 19 14 9 3 351 341 342 352 346 355 352 358 3 353 355 349 344 347 336 342 341 339 337 334 337 335 334 332 327 320 316 316 318 315 310 305 299 296 290 277 271 267 245 221 220 215 206 211 216 214 211 215 217 217 216 217 216 209 203
129 242 312 305 356 329 39 60 60 86 89 20 238 15 116 122 92 50 94 106 122 121 118 116 116 110 104 91 83 89 76 66 55 52 56 42 27 9 1 11 350 338 357 336 347 348 349 355 351 355 356 356 352 347 345 342 332 337 337 337 334 331 333 334 335 330 325 322 320 315 311 309 309 311 308 303 297 290 275 269 267 248 222 218 205 209 212 212 210 211 212 212 210 214 213 208 201
146 289 287 280 356 284 13 77 59 63 78 348 50 145 194 141 132 109 114 133 126 121 111 109 108 100 93 97 99 90 78 59 49 33 29 29 17 354 349 343 349 344 358 349 335 351 347 353 350 351 355 354 350 345 344 337 331 333 334 335 334 331 328 334 332 323 323 324 323 321 321 315 314 309 305 304 301 292 284 272 261 258 243 223 206 210 206 207 208 205 208 209 205 207 206 206 200
218 221 312 329 286 298 258 70 136 115 68 39 41 19 92 122 103 62 152 145 135 122 109 109 103 101 104 108 106 101 97 84 66 44 25 6 1 11 346 342 348 360 345 342 343 345 341 353 351 349 352 351 347 345 341 338 335 333 333 332 330 330 330 331 328 322 319 327 329 329 325 320 316 311 308 305 302 298 291 280 266 259 261 254 230 213 206 205 204 200 205 207 202 203 199 196 193
181 328 326 327 283 331 308 183 229 197 121 48 86 14 133 170 111 186 211 160 140 121 119 112 108 111 114 109 108 118 107 92 80 72 34 19 1 20 348 336 356 341 340 346 337 339 332 349 351 345 348 350 349 347 343 339 336 335 334 331 330 331 329 330 330 323 324 330 327 325 322 324 323 321 318 316 312 305 298 291 281 270 258 247 234 231 208 209 203 199 197 200 201 199 196 181 188
16 14 344 316 283 268 290 218 268 191 287 127 123 204 178 219 79 175 168 170 148 129 126 121 115 122 120 118 117 148 115 110 80 56 40 16 6 3 342 325 332 337 347 336 323 316 333 352 353 348 349 350 349 345 341 338 337 335 333 332 330 329 329 328 325 323 325 324 324 319 321 324 327 324 322 319 316 311 305 299 292 278 267 264 250 238 232 217 206 203 201 200 198 193 185 181 177
270 48 327 307 334 325 258 213 240 154 264 85 149 57 163 216 217 161 156 153 146 130 131 132 133 132 132 130 128 96 95 86 65 54 34 348 301 303 330 299 316 338 309 311 321 343 356 354 352 347 348 348 346 340 337 333 332 333 332 329 325 323 323 321 319 319 318 320 317 316 318 320 321 320 316 316 316 312 308 304 296 283 274 263 257 244 225 216 211 201 201 189 185 185 178 180 175
80 62 156 350 15 323 266 234 146 150 248 58 83 311 264 218 146 152 155 147 135 126 135 138 139 142 142 137 115 97 76 72 75 81 90 304 272 291 324 309 309 337 330 333 352 358 351 354 352 349 350 346 339 335 334 331 328 325 322 322 322 320 317 315 313 310 311 312 310 311 314 314 315 314 317 320 316 312 309 304 298 293 280 266 251 250 243 230 201 195 191 183 184 180 183 179 176
138 250 89 162 74 272 267 186 179 177 242 133 100 245 273 191 161 156 162 152 145 143 144 143 142 138 142 143 133 132 110 107 126 137 344 290 298 308 333 327 342 351 353 357 1 354 357 351 351 349 344 340 336 334 332 328 324 322 321 320 319 318 315 313 308 305 305 306 307 305 306 308 307 308 316 315 316 317 315 311 306 299 290 275 260 243 243 238 205 195 184 189 183 185 183 180 180
271 51 301 324 160 276 303 244 155 199 281 139 95 272 260 180 171 171 161 151 141 140 150 151 147 149 148 143 141 130 107 85 9 214 315 325 351 357 3 349 350 356 360 356 356 354 352 350 351 349 344 342 341 334 328 324 322 322 321 320 318 314 309 306 305 301 300 298 298 301 302 299 300 304 309 313 313 315 312 308 306 305 301 288 265 249 235 227 217 201 192 183 181 187 179 181 179
352 135 269 304 141 248 348 251 222 183 147 296 163 235 318 170 197 174 166 145 146 144 154 155 155 154 145 138 132 115 93 7 331 300 320 358 10 18 4 357 350 348 351 359 356 356 353 351 350 347 342 340 337 332 328 325 325 326 325 319 315 312 311 308 303 301 297 295 294 296 297 295 291 296 302 306 310 311 309 306 305 303 302 296 285 265 244 230 227 215 192 191 187 179 182 177 180
318 32 231 223 294 299 264 304 304 220 159 233 232 230 247 226 167 184 174 155 148 150 158 155 154 148 143 137 127 139 153 191 280 280 335 19 25 13 5 354 342 341 348 352 348 354 350 345 343 340 336 335 332 328 326 326 327 326 321 317 312 310 309 307 307 305 300 296 293 290 290 288 286 288 292 298 300 302 303 304 304 301 299 296 290 274 254 229 219 216 207 199 192 182 183 177 177
236 304 325 308 327 260 236 288 269 140 244 221 253 248 266 203 174 182 174 166 154 161 159 157 153 146 146 142 156 174 174 203 254 258 36 36 30 5 358 348 343 344 343 335 343 350 356 345 341 334 332 331 328 325 324 326 327 323 318 315 312 310 307 307 307 306 304 298 291 287 285 284 281 281 285 286 293 299 302 304 304 301 299 297 296 294 270 239 220 214 207 199 196 192 180 179 172
230 212 212 212 259 285 276 243 257 181 207 232 231 235 253 170 190 193 177 174 158 158 147 149 154 153 149 158 174 181 192 209 247 239 58 45 36 3 349 355 354 347 335 333 334 350 348 341 335 329 329 329 327 326 327 328 328 327 323 320 314 309 306 307 309 307 306 301 293 286 281 278 276 278 277 277 282 290 298 300 302 302 299 298 300 300 290 256 227 225 214 188 186 191 194 177 168
235 259 232 250 251 277 280 264 252 141 324 234 237 242 248 210 195 199 185 154 152 158 162 166 166 156 161 170 177 188 193 194 227 173 68 51 25 352 1 7 360 344 324 321 344 348 346 336 335 335 333 335 337 333 332 333 332 328 324 320 314 310 311 313 310 310 307 305 300 291 282 275 275 275 273 269 274 285 288 293 298 300 299 298 297 294 297 285 252 220 214 210 183 185 189 187 176
234 251 264 274 248 266 257 271 185 310 180 286 259 242 248 233 203 207 170 159 183 174 171 173 165 166 165 166 186 178 211 268 8 43 9 23 357 356 9 11 351 353 338 342 340 329 325 328 332 325 333 335 333 327 324 326 329 327 321 316 312 310 314 316 313 313 309 303 299 292 283 280 278 274 268 263 268 272 284 290 294 298 298 295 293 292 294 302 285 240 220 203 187 183 184 178 174
272 226 257 305 270 246 277 276 166 159 9 256 277 260 253 259 248 195 181 188 189 183 175 170 158 162 166 176 181 209 124 22 353 289 306 348 350 356 5 351 340 334 322 325 317 325 329 334 333 335 334 335 331 327 327 326 326 325 321 311 311 317 318 318 311 308 306 300 295 295 291 285 281 275 265 265 267 271 270 281 286 289 292 291 291 295 305 307 299 280 227 206 202 193 179 179 172
235 284 301 249 244 344 301 311 9 313 169 269 265 276 266 234 239 211 193 186 169 175 164 164 160 162 171 183 179 170 161 199 316 254 266 307 342 343 357 348 326 326 328 324 335 333 329 334 336 337 336 334 330 329 327 324 323 321 320 326 329 321 314 313 307 302 294 291 295 296 293 289 280 272 270 267 265 263 264 270 280 285 287 287 287 289 295 292 289 293 280 235 189 173 186 181 181
264 217 231 254 265 233 203 258 319 301 303 270 294 282 271 210 210 197 185 147 137 163 144 156 175 172 178 173 164 154 164 166 255 276 302 335 350 329 325 310 313 316 312 325 334 338 339 339 340 338 336 335 333 331 330 330 330 331 330 322 315 309 298 294 296 297 309 312 305 296 295 293 289 282 275 267 258 260 260 260 266 277 282 284 280 280 290 281 286 286 289 265 225 182 176 181 186
299 235 206 230 191 253 292 329 12 359 307 281 220 321 272 248 196 187 166 141 168 183 157 172 175 182 169 160 171 190 177 178 178 220 262 276 296 312 320 301 302 291 313 325 339 339 341 340 338 335 333 332 332 330 333 337 333 330 329 328 325 324 316 317 319 322 321 315 313 310 306 301 295 288 281 270 262 257 255 252 256 268 276 283 277 275 278 287 284 295 284 290 235 197 179 176 181
312 270 167 151 160 271 288 316 38 294 253 306 92 202 286 110 174 176 186 177 187 186 177 183 181 187 181 175 173 172 166 197 331 255 324 337 315 329 299 295 290 313 324 335 353 339 337 335 330 328 329 328 329 329 337 336 330 327 325 319 312 308 307 305 305 305 304 305 303 300 298 299 300 292 281 272 264 255 252 250 251 256 266 274 279 273 283 285 292 286 301 288 285 227 181 177 180
247 245 137 115 13 276 264 246 206 248 29 294 289 162 272 288 243 194 175 181 194 193 198 193 192 191 185 178 178 151 176 183 178 216 282 284 282 256 271 276 291 325 332 352 339 331 333 328 328 329 326 326 328 333 334 336 329 326 323 321 315 311 307 304 305 303 300 300 300 302 304 302 303 302 296 281 266 256 250 247 245 248 254 265 274 273 275 284 286 292 289 291 292 278 215 188 184
224 222 148 246 224 244 250 240 251 255 3 277 216 196 262 250 276 170 160 186 216 212 199 196 192 192 175 176 167 170 168 169 163 228 279 273 272 270 268 277 308 351 350 334 325 327 325 324 326 326 324 326 329 334 333 330 328 323 319 315 313 310 306 302 301 299 299 301 301 311 309 306 302 298 297 298 284 267 253 241 241 247 242 253 263 273 273 280 281 286 290 295 285 280 241 195 187
281 202 209 244 246 247 220 241 257 328 113 270 230 181 210 270 175 107 199 211 214 212 198 190 191 182 174 165 171 158 163 178 235 205 240 268 263 265 254 267 6 353 329 321 321 323 324 326 325 326 323 325 328 331 330 327 324 320 315 313 310 309 311 308 306 303 301 305 304 308 309 307 306 304 302 297 294 282 264 246 238 240 236 237 252 256 270 277 281 274 276 280 293 288 284 228 191
181 70 330 335 303 254 178 177 172 33 252 250 209 196 184 283 214 172 158 213 210 191 163 185 189 181 174 164 162 154 165 197 221 252 271 251 259 255 267 14 1 347 334 329 325 323 320 326 325 324 321 323 328 327 328 322 318 316 313 311 311 311 311 312 311 307 306 304 305 306 309 307 304 301 303 298 292 287 272 249 238 238 231 226 236 252 254 267 274 277 274 278 278 290 288 287 231
90 358 43 339 302 21 57 355 68 128 267 261 223 196 200 211 282 195 212 282 177 172 178 180 183 173 162 160 166 159 177 179 214 246 264 262 257 264 4 18 0 338 335 327 315 318 320 323 325 322 321 325 324 324 320 316 315 313 310 310 311 310 312 312 312 307 309 307 309 308 309 307 307 305 303 304 306 306 295 273 254 247 238 222 230 231 252 252 269 277 279 274 279 281 284 289 261
79 61 42 12 289 7 334 41 296 195 233 246 173 169 299 234 239 201 226 239 200 180 174 177 168 161 164 167 160 177 168 162 198 226 246 249 275 354 9 357 346 339 324 315 311 317 322 323 324 322 317 322 321 321 318 316 315 314 314 313 311 311 311 311 307 306 306 306 310 309 310 307 305 303 301 295 295 302 305 299 285 265 248 226 224 224 241 256 262 276 277 281 277 275 281 279 276
109 141 150 103 323 341 287 236 232 292 292 247 95 37 255 274 295 213 211 218 192 163 155 152 149 152 164 165 165 156 169 179 201 224 240 277 356 358 358 334 329 319 315 312 313 322 323 321 322 319 314 319 319 318 317 316 315 313 313 310 309 310 309 309 307 306 304 303 305 306 306 303 300 298 301 296 295 300 301 302 298 284 267 244 225 224 229 245 257 263 276 279 277 278 277 281 277
204 152 141 187 166 212 286 292 278 278 257 265 259 8 229 113 241 311 207 121 111 115 121 130 138 153 157 154 157 156 184 211 210 235 299 4 348 341 329 319 316 316 314 310 314 319 321 320 321 318 315 318 320 318 318 318 315 313 312 309 308 308 306 305 303 302 303 303 302 299 298 298 296 298 295 295 292 292 300 303 301 295 281 261 240 229 225 234 246 260 269 274 275 274 276 280 278
210 160 77 91 234 140 239 192 231 310 321 301 170 213 194 202 339 16 88 107 102 122 129 132 150 150 141 146 161 177 196 208 236 358 3 353 327 307 311 316 311 314 312 309 317 319 319 317 316 313 312 314 316 315 317 318 315 312 311 311 310 307 302 301 300 298 294 294 296 295 297 296 295 293 294 291 298 305 300 298 300 297 289 271 253 240 228 225 236 253 267 274 276 270 273 271 276
178 107 206 209 190 154 299 335 121 11 23 262 177 282 262 321 132 90 123 114 133 140 146 147 159 161 148 165 176 185 198 227 7 15 355 312 297 289 285 294 310 312 311 309 309 314 314 313 315 314 313 313 312 313 315 317 312 309 310 312 310 308 305 302 298 295 292 290 287 288 289 290 290 289 293 299 300 293 294 298 303 304 301 280 261 254 243 231 226 240 257 274 278 277 268 266 268
106 205 240 258 146 116 139 237 330 56 225 268 137 250 272 117 277 175 167 158 179 179 170 165 165 161 158 179 179 184 162 20 10 339 270 253 254 271 290 304 307 307 307 308 311 312 309 307 308 310 311 313 314 317 319 320 316 312 312 313 313 309 303 298 295 294 296 292 291 289 291 288 287 289 292 293 292 293 299 300 300 304 303 294 276 265 256 245 239 241 250 261 270 275 268 267 263
179 185 252 96 269 300 195 84 272 271 256 271 258 204 254 185 221 164 211 191 195 194 187 168 179 171 173 182 178 193 97 13 288 259 257 264 288 299 306 301 303 306 296 295 305 308 307 308 308 307 307 306 308 315 317 315 314 312 310 310 310 309 304 299 294 289 289 291 290 290 289 288 287 287 288 291 293 297 296 298 301 302 302 299 289 273 262 256 248 250 252 261 267 269 268 267 270
55 27 356 266 105 230 163 197 202 161 270 306 276 39 271 142 216 184 196 199 189 181 181 191 184 181 174 178 176 181 195 214 232 259 277 279 290 288 290 302 306 300 298 303 307 308 307 309 310 311 308 308 310 313 314 310 312 310 308 307 306 303 297 295 293 295 293 287 289 289 289 290 291 290 286 284 287 291 297 300 300 298 295 295 293 280 265 257 252 249 254 266 272 274 274 274 279
148 154 232 334 217 235 143 296 153 203 249 251 292 298 264 182 170 173 193 189 190 177 181 185 185 181 177 178 173 184 196 208 243 266 270 273 277 291 305 300 291 290 296 306 308 306 306 310 310 312 314 313 314 313 313 310 311 308 307 307 307 307 302 297 292 286 285 288 287 288 288 287 292 287 282 285 288 293 294 293 294 295 293 294 293 287 273 259 254 254 256 261 274 278 279 280 282
182 176 210 195 175 245 252 261 96 221 220 235 225 259 261 224 180 177 174 176 172 175 169 183 180 174 178 177 174 177 179 216 222 246 258 281 294 299 305 307 297 306 312 313 309 306 312 313 311 311 311 309 311 313 315 315 313 309 307 307 306 305 301 297 292 288 285 288 286 286 286 288 286 287 290 290 289 287 288 291 294 296 296 292 290 287 276 260 258 260 263 263 274 282 284 286 288